{"data":{"norad_id":62788,"intl_designator":"2025-016D","name":"QIANFAN-58","alt_names":[],"object_type":"PAYLOAD","status":"ACTIVE","operator":null,"country":"PRC","launch_date":"2025-01-23","launch_site_code":"TAISC","launch_vehicle":null,"mission":null,"orbit_class":"UNKNOWN","rcs_meters":null,"size_class":null,"mass_kg":null,"dimensions":null,"purposes":[],"wikipedia_slug":null,"has_3d_model":false,"image_url":null,"decayed_at":null,"tle_current":{"epoch":"2026-05-25T02:32:59.178336Z","epoch_age_seconds":59816,"freshness":"FRESH","line1":"1 62788U 25016D   26145.10624049  .00000106  00000+0  14594-3 0  9991","line2":"2 62788  88.9708  86.0464 0011807 226.1538 133.8638 13.51011940 69300","mean_motion":13.5101194,"eccentricity":0.0011807,"inclination_deg":88.9708,"raan_deg":86.0464,"arg_perigee_deg":226.1538,"mean_anomaly_deg":133.8638,"bstar":0.00014594,"rev_number":6930,"period_min":106.58677080234,"perigee_km":1059.7454211794,"apogee_km":1077.3299988396,"semimajor_km":7446.6747100095,"source":"CELESTRAK","updated_at":"2026-05-25T13:38:03.251152Z"}}}